EW1953 Weather Reports


Display with metric or nautical units.
time (UTC)temp
F
wind
direction
speed
MPH
gust
MPH
rain 1hr
in
rain 24hr
in
rain mn
in
humidity
%
barometer
mb
20190223165208 53 47 0.0 3.0 0.00 0.00 0.00 70 1034.0
20190223164707 54 50 0.0 2.0 0.00 0.00 0.00 69 1034.0
20190223164209 54 55 0.0 3.0 0.00 0.00 0.00 69 1034.0
20190223163724 54 55 0.0 3.0 0.00 0.00 0.00 68 1034.0
20190223163207 55 45 1.0 3.0 0.00 0.00 0.00 68 1034.0
20190223162708 55 38 0.0 3.0 0.00 0.00 0.00 67 1033.9
20190223162209 55 342 0.0 4.0 0.00 0.00 0.00 66 1033.9
20190223161707 55 342 1.0 4.0 0.00 0.00 0.00 65 1033.9
20190223161206 56 41 1.0 5.0 0.00 0.00 0.00 64 1033.9
20190223160709 56 347 1.0 5.0 0.00 0.00 0.00 65 1033.7
20190223160208 56 44 2.0 5.0 0.00 0.00 0.00 64 1033.8
20190223155706 56 40 2.0 7.0 0.00 0.00 0.00 64 1033.8
20190223155209 56 45 2.0 7.0 0.00 0.00 0.00 63 1033.7
20190223154709 56 65 2.0 7.0 0.00 0.00 0.00 63 1033.8
20190223154213 57 49 2.0 7.0 0.00 0.00 0.00 62 1033.9
20190223153706 57 33 2.0 7.0 0.00 0.00 0.00 62 1033.9
20190223153207 57 51 2.0 7.0 0.00 0.00 0.00 63 1033.9
20190223152706 57 40 2.0 7.0 0.00 0.00 0.00 62 1034.0
20190223152207 57 29 2.0 7.0 0.00 0.00 0.00 62 1034.0
20190223151707 58 350 1.0 7.0 0.00 0.00 0.00 62 1034.0
20190223151207 58 46 1.0 5.0 0.00 0.00 0.00 62 1034.0
20190223150706 58 40 1.0 5.0 0.00 0.00 0.00 62 1034.1
20190223150206 58 38 1.0 5.0 0.00 0.00 0.00 61 1034.1
20190223145707 58 27 2.0 5.0 0.00 0.00 0.00 62 1034.1
20190223145206 58 13 2.0 5.0 0.00 0.00 0.00 60 1034.1
20190223144706 58 24 1.0 3.0 0.00 0.00 0.00 60 1034.0
20190223144207 59 15 1.0 4.0 0.00 0.00 0.00 59 1034.1
20190223143706 58 5 1.0 4.0 0.00 0.00 0.00 59 1034.1
20190223143208 58 15 1.0 4.0 0.00 0.00 0.00 59 1034.1
20190223142706 58 334 1.0 4.0 0.00 0.00 0.00 58 1034.2
20190223142206 58 5 1.0 4.0 0.00 0.00 0.00 58 1034.1
20190223141706 58 286 1.0 6.0 0.00 0.00 0.00 59 1034.1
20190223141207 58 0 1.0 7.0 0.00 0.00 0.00 60 1034.2
20190223140706 58 16 1.0 7.0 0.00 0.00 0.00 60 1034.2
20190223140206 58 40 2.0 7.0 0.00 0.00 0.00 59 1034.2
20190223135707 58 319 1.0 3.0 0.00 0.00 0.00 60 1034.2
20190223135209 58 22 0.0 3.0 0.00 0.00 0.00 60 1034.2
20190223134705 58 355 0.0 3.0 0.00 0.00 0.00 63 1034.2
20190223134207 57 355 0.0 4.0 0.00 0.00 0.00 61 1034.2
20190223133707 57 306 1.0 4.0 0.00 0.00 0.00 61 1034.2
20190223133209 57 262 1.0 4.0 0.00 0.00 0.00 60 1034.3
20190223132708 56 49 1.0 4.0 0.00 0.00 0.00 61 1034.4
20190223132210 56 28 1.0 4.0 0.00 0.00 0.00 62 1034.5
20190223131708 56 336 1.0 4.0 0.00 0.00 0.00 62 1034.6
20190223131216 56 336 1.0 4.0 0.00 0.00 0.00 63 1034.7
20190223130707 56 32 2.0 4.0 0.00 0.00 0.00 61 1034.7
20190223130209 56 9 1.0 4.0 0.00 0.00 0.00 61 1034.6
20190223125707 56 351 1.0 4.0 0.00 0.00 0.00 61 1034.7
20190223125207 56 196 1.0 4.0 0.00 0.00 0.00 62 1034.7
20190223124707 55 23 1.0 4.0 0.00 0.00 0.00 62 1034.8
20190223124208 55 5 1.0 4.0 0.00 0.00 0.00 63 1034.9
20190223123707 55 306 1.0 4.0 0.00 0.00 0.00 63 1034.9
20190223123208 55 355 1.0 4.0 0.00 0.00 0.00 66 1034.8
20190223122706 55 36 1.0 4.0 0.00 0.00 0.00 65 1034.9
20190223122212 54 203 1.0 4.0 0.00 0.00 0.00 66 1034.8
20190223121708 54 192 1.0 5.0 0.00 0.00 0.00 65 1034.9
20190223121207 54 19 2.0 5.0 0.00 0.00 0.00 66 1035.0
20190223120706 54 350 1.0 7.0 0.00 0.00 0.00 67 1035.1
20190223120208 54 14 1.0 7.0 0.00 0.00 0.00 69 1035.2
20190223115707 54 23 2.0 8.0 0.00 0.00 0.00 69 1035.3
20190223115211 54 355 2.0 8.0 0.00 0.00 0.00 70 1035.4
20190223114708 54 355 2.0 8.0 0.00 0.00 0.00 71 1035.3
20190223114214 54 17 2.0 6.0 0.00 0.00 0.00 72 1035.3
20190223113706 54 32 1.0 5.0 0.00 0.00 0.00 73 1035.3
20190223113207 53 199 1.0 6.0 0.00 0.00 0.00 74 1035.3
20190223112707 53 180 2.0 6.0 0.00 0.00 0.00 74 1035.4
20190223112207 53 333 1.0 6.0 0.00 0.00 0.00 76 1035.4
20190223111706 53 0 1.0 3.0 0.00 0.00 0.00 77 1035.5
20190223111207 53 270 1.0 4.0 0.00 0.00 0.00 78 1035.5
20190223110709 52 259 1.0 4.0 0.00 0.00 0.00 79 1035.6
20190223110205 52 195 1.0 4.0 0.00 0.00 0.00 79 1035.6
20190223105707 52 24 1.0 4.0 0.00 0.00 0.00 80 1035.6
20190223105207 51 321 1.0 5.0 0.00 0.00 0.00 81 1035.6
20190223104708 51 21 1.0 5.0 0.00 0.00 0.00 82 1035.6
20190223104208 51 22 1.0 5.0 0.00 0.00 0.00 82 1035.6
20190223103707 50 251 1.0 5.0 0.00 0.00 0.00 85 1035.5
20190223103217 50 19 1.0 5.0 0.00 0.00 0.00 84 1035.5
20190223102706 49 41 1.0 5.0 0.00 0.00 0.00 86 1035.5
20190223102213 49 236 0.0 4.0 0.00 0.00 0.00 86 1035.5
20190223101707 49 0 1.0 3.0 0.00 0.00 0.00 88 1035.4
20190223101206 49 19 1.0 3.0 0.00 0.00 0.00 90 1035.4
20190223100707 48 319 1.0 3.0 0.00 0.00 0.00 91 1035.5
20190223100207 47 291 1.0 4.0 0.00 0.00 0.00 93 1035.4
20190223095706 47 44 1.0 4.0 0.00 0.00 0.00 94 1035.4
20190223095206 46 329 1.0 4.0 0.00 0.00 0.00 95 1035.4
20190223094724 46 9 0.0 3.0 0.00 0.00 0.00 97 1035.4
20190223094206 45 19 0.0 2.0 0.00 0.00 0.00 98 1035.4
20190223093706 45 329 0.0 2.0 0.00 0.00 0.00 98 1035.4
20190223093207 44 350 0.0 3.0 0.00 0.00 0.00 98 1035.4
20190223092706 44 355 0.0 3.0 0.00 0.00 0.00 99 1035.5
20190223092207 43 355 0.0 3.0 0.00 0.00 0.00 99 1035.5
20190223091707 43 36 0.0 2.0 0.00 0.00 0.00 99 1035.5
20190223091207 43 336 0.0 3.0 0.00 0.00 0.00 99 1035.5
20190223090707 42 15 0.0 3.0 0.00 0.00 0.00 99 1035.5
20190223090206 42 15 0.0 3.0 0.00 0.00 0.00 99 1035.5
20190223085705 41 30 0.0 1.0 0.00 0.00 0.00 99 1035.6
20190223085206 41 39 0.0 1.0 0.00 0.00 0.00 99 1035.6
20190223084710 40 39 0.0 1.0 0.00 0.00 0.00 99 1035.6
20190223084208 40 39 0.0 1.0 0.00 0.00 0.00 99 1035.6
20190223083707 39 39 0.0 2.0 0.00 0.00 0.00 99 1035.6
20190223083209 38 46 0.0 2.0 0.00 0.00 0.00 99 1035.7
20190223082706 37 46 0.0 1.0 0.00 0.00 0.00 98 1035.9
20190223082210 36 46 0.0 0.0 0.00 0.00 0.00 98 1035.9
20190223081715 35 46 0.0 0.0 0.00 0.00 0.00 98 1035.9
20190223081206 34 46 0.0 0.0 0.00 0.00 0.00 98 1036.0
20190223080714 34 46 0.0 0.0 0.00 0.00 0.00 98 1036.0
20190223080207 34 46 0.0 0.0 0.00 0.00 0.00 97 1036.1
20190223075706 33 46 0.0 0.0 0.00 0.00 0.00 97 1036.0
20190223075210 33 46 0.0 0.0 0.00 0.00 0.00 97 1036.1
20190223074706 33 46 0.0 0.0 0.00 0.00 0.00 97 1036.2
20190223074211 32 46 0.0 0.0 0.00 0.00 0.00 97 1036.1
20190223073706 32 46 0.0 0.0 0.00 0.00 0.00 97 1036.2
20190223073207 32 46 0.0 0.0 0.00 0.00 0.00 97 1036.2
20190223072705 32 46 0.0 0.0 0.00 0.00 0.00 97 1036.1
20190223072230 32 46 0.0 0.0 0.00 0.00 0.00 97 1036.1
20190223071706 32 46 0.0 0.0 0.00 0.00 0.00 97 1036.2
20190223071207 32 46 0.0 0.0 0.00 0.00 0.00 97 1036.1
20190223070706 32 46 0.0 0.0 0.00 0.00 0.00 97 1036.1
20190223070206 32 46 0.0 0.0 0.00 0.00 0.00 97 1036.1
20190223065716 32 46 0.0 0.0 0.00 0.00 0.00 97 1036.0
20190223065208 32 46 0.0 0.0 0.00 0.00 0.00 97 1035.9
20190223064708 32 46 0.0 0.0 0.00 0.00 0.00 97 1035.9
20190223064208 33 46 0.0 0.0 0.00 0.00 0.00 97 1035.7
20190223063709 33 46 0.0 0.0 0.00 0.00 0.00 97 1035.7
20190223063206 33 46 0.0 0.0 0.00 0.00 0.00 97 1035.9
20190223062707 33 46 0.0 0.0 0.00 0.00 0.00 97 1035.7
20190223062217 33 46 0.0 0.0 0.00 0.00 0.00 97 1035.7
20190223061708 33 46 0.0 0.0 0.00 0.00 0.00 97 1035.6
20190223061210 33 46 0.0 0.0 0.00 0.00 0.00 97 1035.6
20190223060708 33 46 0.0 0.0 0.00 0.00 0.00 97 1035.5
20190223060209 33 46 0.0 0.0 0.00 0.00 0.00 97 1035.5
20190223055706 33 46 0.0 0.0 0.00 0.00 0.00 97 1035.5
20190223055235 33 46 0.0 0.0 0.00 0.00 0.00 97 1035.4
20190223054713 33 46 0.0 0.0 0.00 0.00 0.00 97 1035.5
20190223054207 33 46 0.0 0.0 0.00 0.00 0.00 96 1035.4
20190223053707 33 46 0.0 0.0 0.00 0.00 0.00 97 1035.4
20190223053207 33 46 0.0 0.0 0.00 0.00 0.00 97 1035.3
20190223052706 33 46 0.0 0.0 0.00 0.00 0.00 96 1035.3
20190223052210 33 46 0.0 0.0 0.00 0.00 0.00 96 1035.4
20190223051708 33 46 0.0 0.0 0.00 0.00 0.00 96 1035.4
20190223051206 33 46 0.0 0.0 0.00 0.00 0.00 96 1035.5
20190223050706 33 46 0.0 0.0 0.00 0.00 0.00 96 1035.5
20190223050207 34 46 0.0 0.0 0.00 0.00 0.00 96 1035.4
20190223045707 34 46 0.0 0.0 0.00 0.00 0.00 96 1035.4
20190223045206 34 46 0.0 0.0 0.00 0.00 0.00 96 1035.5
20190223044706 34 46 0.0 0.0 0.00 0.00 0.00 96 1035.4
20190223044206 34 46 0.0 0.0 0.00 0.00 0.00 96 1035.4
20190223043712 34 46 0.0 0.0 0.00 0.00 0.00 96 1035.4
20190223043208 34 46 0.0 0.0 0.00 0.00 0.00 96 1035.4
20190223042706 34 46 0.0 0.0 0.00 0.00 0.00 96 1035.4
20190223042207 35 46 0.0 0.0 0.00 0.00 0.00 96 1035.6
20190223041708 35 46 0.0 0.0 0.00 0.00 0.00 96 1035.6
20190223041207 35 46 0.0 0.0 0.00 0.00 0.00 96 1035.6
20190223040706 35 46 0.0 0.0 0.00 0.00 0.00 96 1035.6
20190223040208 35 46 0.0 0.0 0.00 0.00 0.00 96 1035.7
20190223035707 36 46 0.0 0.0 0.00 0.00 0.00 96 1035.7
20190223035206 36 46 0.0 0.0 0.00 0.00 0.00 96 1035.9
20190223034707 36 46 0.0 0.0 0.00 0.00 0.00 96 1035.7
20190223034206 36 46 0.0 0.0 0.00 0.00 0.00 96 1035.7
20190223033707 36 46 0.0 0.0 0.00 0.00 0.00 96 1035.7
20190223033235 37 46 0.0 0.0 0.00 0.00 0.00 96 1035.7
20190223032705 37 46 0.0 0.0 0.00 0.00 0.00 96 1035.7
20190223032236 37 46 0.0 0.0 0.00 0.00 0.00 96 1035.7
20190223031706 37 46 0.0 0.0 0.00 0.00 0.00 96 1035.7
20190223031223 37 46 0.0 0.0 0.00 0.00 0.00 96 1035.7
20190223030707 38 46 0.0 0.0 0.00 0.00 0.00 97 1035.7
20190223030206 38 46 0.0 0.0 0.00 0.00 0.00 97 1035.7
20190223025706 38 46 0.0 0.0 0.00 0.00 0.00 96 1035.7
20190223025212 38 46 0.0 0.0 0.00 0.00 0.00 96 1035.7
20190223024706 38 46 0.0 0.0 0.00 0.00 0.00 96 1035.7
20190223024210 38 46 0.0 0.0 0.00 0.00 0.00 97 1035.7
20190223023706 38 46 0.0 0.0 0.00 0.00 0.00 97 1035.6
20190223023207 38 46 0.0 0.0 0.00 0.00 0.00 97 1035.6
20190223022706 39 46 0.0 0.0 0.00 0.00 0.00 97 1035.6
20190223022207 39 46 0.0 0.0 0.00 0.00 0.00 97 1035.7
20190223021706 39 46 0.0 0.0 0.00 0.00 0.00 97 1035.7
20190223021219 39 46 0.0 0.0 0.00 0.00 0.00 97 1035.7
20190223020706 39 46 0.0 0.0 0.00 0.00 0.00 97 1035.7
20190223020207 39 46 0.0 0.0 0.00 0.00 0.00 96 1035.5
20190223015705 39 46 0.0 0.0 0.00 0.00 0.00 96 1035.6
20190223015208 39 46 0.0 0.0 0.00 0.00 0.00 96 1035.6
20190223014708 40 46 0.0 0.0 0.00 0.00 0.00 96 1035.7
20190223014207 40 46 0.0 0.0 0.00 0.00 0.00 96 1035.7
20190223013706 40 46 0.0 0.0 0.00 0.00 0.00 97 1035.7
20190223013207 40 46 0.0 0.0 0.00 0.00 0.00 97 1035.6
20190223012717 41 46 0.0 0.0 0.00 0.00 0.00 97 1035.6
20190223012207 41 46 0.0 0.0 0.00 0.00 0.00 97 1035.6
20190223011730 41 46 0.0 0.0 0.00 0.00 0.00 97 1035.5
20190223011208 41 46 0.0 0.0 0.00 0.00 0.00 97 1035.6
20190223010706 41 46 0.0 0.0 0.00 0.00 0.00 98 1035.7
20190223010207 40 46 0.0 1.0 0.00 0.00 0.00 97 1035.6
20190223005715 40 46 0.0 1.0 0.00 0.00 0.00 97 1035.6
20190223005220 39 46 0.0 1.0 0.00 0.00 0.00 97 1035.6
20190223004706 39 46 0.0 0.0 0.00 0.00 0.00 97 1035.6
20190223004210 38 46 0.0 0.0 0.00 0.00 0.00 96 1035.7
20190223003706 38 46 0.0 0.0 0.00 0.00 0.00 96 1035.7
20190223003207 38 46 0.0 0.0 0.00 0.00 0.00 96 1035.7
20190223002707 38 46 0.0 0.0 0.00 0.00 0.00 96 1035.7
20190223002208 38 46 0.0 0.0 0.00 0.00 0.00 96 1036.0
20190223001707 38 46 0.0 0.0 0.00 0.00 0.00 96 1036.0
20190223001207 38 46 0.0 0.0 0.00 0.00 0.00 96 1036.0
20190223000718 38 46 0.0 0.0 0.00 0.00 0.00 96 1036.1
20190223000207 38 46 0.0 0.0 0.00 0.00 0.00 96 1036.1
20190222235730 38 46 0.0 0.0 0.00 0.00 0.00 96 1036.1
20190222235210 38 46 0.0 0.0 0.00 0.00 0.00 96 1036.1
20190222234706 38 46 0.0 0.0 0.00 0.00 0.00 96 1036.1
20190222234214 39 46 0.0 0.0 0.00 0.00 0.00 96 1036.2
20190222233712 39 46 0.0 0.0 0.00 0.00 0.00 96 1036.2
20190222233206 39 46 0.0 0.0 0.00 0.00 0.00 95 1036.1
20190222232706 39 46 0.0 0.0 0.00 0.00 0.00 95 1036.0
20190222232209 39 46 0.0 0.0 0.00 0.00 0.00 95 1035.9
20190222231712 39 46 0.0 0.0 0.00 0.00 0.00 95 1035.9
20190222231210 39 46 0.0 0.0 0.00 0.00 0.00 95 1036.0
20190222230707 40 46 0.0 0.0 0.00 0.00 0.00 95 1036.1
20190222230229 40 46 0.0 0.0 0.00 0.00 0.00 95 1036.0
20190222225709 40 46 0.0 0.0 0.00 0.00 0.00 95 1036.1
20190222225217 40 46 0.0 0.0 0.00 0.00 0.00 95 1036.0
20190222224706 40 46 0.0 0.0 0.00 0.00 0.00 95 1036.0
20190222224221 40 46 0.0 0.0 0.00 0.00 0.00 95 1036.0
20190222223705 40 46 0.0 0.0 0.00 0.00 0.00 95 1036.1
20190222223207 40 46 0.0 0.0 0.00 0.00 0.00 95 1036.1
20190222222706 41 46 0.0 0.0 0.00 0.00 0.00 95 1036.1
20190222222207 41 46 0.0 0.0 0.00 0.00 0.00 95 1036.1
20190222221707 41 46 0.0 0.0 0.00 0.00 0.00 95 1036.2
20190222221206 41 46 0.0 0.0 0.00 0.00 0.00 95 1036.2
20190222220708 41 46 0.0 0.0 0.00 0.00 0.00 95 1036.3
20190222220206 42 46 0.0 0.0 0.00 0.00 0.00 95 1036.3
20190222215706 42 46 0.0 0.0 0.00 0.00 0.00 95 1036.3
20190222215208 42 46 0.0 0.0 0.00 0.00 0.00 95 1036.3
20190222214707 42 46 0.0 0.0 0.00 0.00 0.00 95 1036.3
20190222214206 43 46 0.0 0.0 0.00 0.00 0.00 95 1036.2
20190222213708 43 46 0.0 0.0 0.00 0.00 0.00 95 1036.2
20190222213207 44 46 0.0 0.0 0.00 0.00 0.00 95 1036.3
20190222212707 44 46 0.0 0.0 0.00 0.00 0.00 95 1036.4
20190222212208 44 46 0.0 0.0 0.00 0.00 0.00 95 1036.3
20190222211707 44 46 0.0 0.0 0.00 0.00 0.00 95 1036.4
20190222211210 44 46 0.0 0.0 0.00 0.00 0.00 95 1036.4
20190222210714 45 46 0.0 0.0 0.00 0.00 0.00 95 1036.4
20190222210206 45 46 0.0 1.0 0.00 0.00 0.00 95 1036.2
20190222205720 45 46 0.0 1.0 0.00 0.00 0.00 96 1036.1
20190222205220 45 46 0.0 1.0 0.00 0.00 0.00 96 1035.9
20190222204713 45 46 0.0 0.0 0.00 0.00 0.00 95 1035.7
20190222204208 45 46 0.0 0.0 0.00 0.00 0.00 95 1035.6
20190222203706 45 46 0.0 1.0 0.00 0.00 0.00 95 1035.7
20190222203210 45 46 0.0 2.0 0.00 0.00 0.00 95 1035.7
20190222202708 45 46 0.0 2.0 0.00 0.00 0.00 95 1035.7
20190222202218 45 46 0.0 2.0 0.00 0.00 0.00 95 1035.7
20190222201708 45 42 0.0 0.0 0.00 0.00 0.00 95 1035.7
20190222201215 46 42 0.0 0.0 0.00 0.00 0.00 95 1035.6
20190222200727 46 42 0.0 0.0 0.00 0.00 0.00 94 1035.6
20190222200206 46 42 0.0 2.0 0.00 0.00 0.00 95 1035.7
20190222195708 47 42 0.0 2.0 0.00 0.00 0.00 95 1035.7
20190222195206 47 42 0.0 1.0 0.00 0.00 0.00 95 1035.9
20190222194706 47 16 0.0 1.0 0.00 0.00 0.00 95 1036.0
20190222194235 47 36 0.0 2.0 0.00 0.00 0.00 95 1035.9
20190222193706 47 36 0.0 2.0 0.00 0.00 0.00 95 1035.9
20190222193207 46 36 0.0 2.0 0.00 0.00 0.00 95 1036.0
20190222192706 46 36 0.0 0.0 0.00 0.00 0.00 94 1035.9
20190222192207 46 36 0.0 1.0 0.00 0.00 0.00 94 1035.7
20190222191708 47 36 0.0 1.0 0.00 0.00 0.00 94 1035.7
20190222191208 47 36 0.0 1.0 0.00 0.00 0.00 94 1035.7
20190222190708 47 36 0.0 0.0 0.00 0.00 0.00 94 1035.7
20190222190206 47 36 0.0 0.0 0.00 0.00 0.00 93 1035.9
20190222185715 47 36 0.0 0.0 0.00 0.00 0.00 93 1035.9
20190222185206 48 36 0.0 1.0 0.00 0.00 0.00 94 1035.9
20190222184707 48 36 0.0 3.0 0.00 0.00 0.00 94 1035.9
20190222184208 48 36 0.0 3.0 0.00 0.00 0.00 94 1035.7
20190222183706 48 36 0.0 3.0 0.00 0.00 0.00 94 1035.7
20190222183209 48 47 0.0 2.0 0.00 0.00 0.00 94 1035.6
20190222182706 48 47 0.0 0.0 0.00 0.00 0.00 93 1035.3
20190222182207 48 351 0.0 1.0 0.00 0.00 0.00 93 1035.2
20190222181707 48 351 0.0 1.0 0.00 0.00 0.00 93 1035.3
20190222181223 48 351 0.0 1.0 0.00 0.00 0.00 93 1035.3
20190222180719 49 351 0.0 1.0 0.00 0.00 0.00 93 1035.4
20190222180207 49 344 0.0 1.0 0.00 0.00 0.00 93 1035.4
20190222175706 49 344 0.0 1.0 0.00 0.00 0.00 92 1035.4
20190222175208 49 344 0.0 1.0 0.00 0.00 0.00 92 1035.3
20190222174706 49 344 0.0 1.0 0.00 0.00 0.00 92 1035.2
20190222174208 49 344 0.0 1.0 0.00 0.00 0.00 92 1035.1
20190222173707 50 344 0.0 1.0 0.00 0.00 0.00 92 1035.1
20190222173219 50 344 0.0 1.0 0.00 0.00 0.00 92 1035.0
20190222172728 50 344 0.0 1.0 0.00 0.00 0.00 92 1035.1
20190222172207 50 344 0.0 2.0 0.00 0.00 0.00 91 1035.0
20190222171708 51 338 0.0 2.0 0.00 0.00 0.00 91 1035.0
20190222171206 51 32 0.0 2.0 0.00 0.00 0.00 91 1034.9
20190222170706 51 31 0.0 2.0 0.00 0.00 0.00 91 1035.0
20190222170208 51 31 0.0 3.0 0.00 0.00 0.00 91 1035.1
20190222165708 51 53 0.0 3.0 0.00 0.00 0.00 91 1035.1